Theta_e
361 360 361 360 361 360 360 360 360 360 359 358 356 356 356 356 355 354 354 353 352 350 349 347 346 345 343 343 342 342 341 340 339 338 339 335 336 337 336 336 335 336 337 337 338 337 335 334 333 336 338 335 335 338 337 336 338 336 336 334 334 333 331 328 324 325 327 332 333 333 334 335 332 332 331 331 334 336 342 338 337 336 336 336 335
361 360 361 361 360 360 360 360 360 359 358 358 356 356 356 356 355 354 352 352 352 350 349 348 346 344 343 343 342 341 342 340 339 337 338 337 336 338 336 336 335 335 335 334 334 336 337 335 335 337 338 335 334 335 336 336 335 334 333 333 331 332 333 329 326 325 325 327 330 334 334 336 332 333 331 331 331 335 334 335 337 337 336 336 335
361 361 360 360 360 360 361 360 359 358 358 358 357 356 356 355 355 353 353 352 352 351 349 349 346 344 343 343 342 341 341 340 339 337 337 337 336 337 337 336 335 334 334 333 333 334 333 334 333 335 339 336 336 335 336 334 335 334 334 336 334 333 335 332 328 325 324 325 329 330 330 331 330 330 332 333 334 335 334 334 335 337 338 336 335
361 360 360 360 360 360 360 360 359 358 357 358 357 356 356 356 355 353 353 353 351 351 350 349 347 345 343 343 342 341 340 340 339 338 337 337 336 336 336 336 338 336 334 334 334 334 333 333 334 335 336 333 334 333 334 334 334 334 333 335 335 334 332 332 330 326 327 326 328 328 329 327 329 332 334 335 333 333 333 333 334 335 335 337 336
361 361 360 359 360 359 359 360 359 357 357 357 357 357 356 356 356 354 353 352 351 350 350 349 347 345 344 343 342 341 340 340 339 338 338 337 336 335 335 335 335 336 336 335 339 335 335 334 334 334 334 331 332 332 333 333 333 333 331 332 332 333 333 331 330 330 327 326 326 329 330 329 331 332 333 331 331 332 332 332 333 333 333 334 336
361 361 360 359 359 359 359 359 359 358 357 356 356 356 356 355 355 355 353 351 350 350 350 349 348 346 345 344 343 341 341 340 339 339 338 338 337 336 335 335 335 335 335 335 336 335 335 334 335 334 333 331 331 332 332 330 331 332 332 334 335 334 332 331 331 330 327 326 326 326 327 328 329 330 332 332 331 330 330 331 332 333 332 331 332
360 360 359 358 358 358 359 359 359 358 357 357 356 355 355 355 355 354 354 352 350 349 350 350 349 348 346 345 344 342 342 341 339 339 339 338 337 336 335 335 336 336 336 336 336 336 336 336 335 335 333 332 331 331 332 332 333 332 330 336 335 333 332 331 331 330 328 326 326 327 327 329 329 328 332 334 333 332 329 328 327 329 330 330 329
359 359 359 357 357 358 359 359 359 359 358 357 355 354 353 353 354 354 354 351 349 349 349 350 350 349 347 346 345 343 342 341 340 339 339 339 338 337 337 336 336 336 337 337 337 337 337 337 337 336 334 333 333 332 333 332 332 331 335 336 335 334 332 331 331 331 329 328 327 326 326 327 328 330 331 329 327 326 329 328 326 326 326 327 328
358 358 358 356 356 358 358 359 360 359 358 357 355 354 352 352 352 352 352 351 350 349 350 350 350 349 348 347 345 344 342 342 341 340 338 338 338 338 337 337 336 335 335 336 336 336 336 337 336 335 335 342 345 341 339 338 334 331 335 335 333 330 328 326 326 325 325 325 325 325 325 324 325 325 324 323 323 323 325 325 325 326 326 326 327
357 357 358 357 357 357 358 358 359 359 358 357 355 354 353 351 351 351 351 350 349 348 349 350 350 349 348 346 345 344 343 343 337 329 333 339 337 337 336 335 335 334 335 335 335 336 336 337 338 344 344 347 348 348 342 339 339 335 333 332 331 328 326 325 325 326 325 323 323 323 322 322 324 324 323 324 325 324 323 322 321 322 322 323 323
356 356 357 359 358 358 357 357 358 358 358 358 356 355 353 352 351 351 351 350 349 348 348 349 350 350 348 346 344 344 344 342 329 327 330 333 337 335 334 334 334 335 335 335 334 335 336 335 335 342 348 346 343 343 340 336 336 336 335 334 333 331 327 326 325 323 322 323 323 323 323 322 323 324 323 323 324 323 323 322 323 323 320 318 318
355 354 357 359 359 358 358 358 357 357 358 358 357 356 354 353 351 350 351 351 350 349 347 349 350 349 349 347 344 343 343 334 326 327 329 329 334 336 334 334 335 335 336 336 335 335 335 334 335 338 338 337 337 340 339 336 332 333 332 332 332 332 331 329 327 324 324 324 323 323 323 322 322 322 322 323 323 323 323 324 323 322 320 318 317
353 353 355 358 359 360 359 359 358 357 357 358 358 357 355 353 351 349 350 352 350 349 348 350 350 349 348 346 344 343 342 330 325 325 327 326 329 334 335 336 336 336 337 337 336 335 334 333 334 336 338 343 341 336 335 336 334 330 331 333 333 331 327 326 327 330 327 324 324 323 323 323 322 323 325 326 326 323 322 322 322 321 320 318 318
351 351 353 356 359 360 361 360 360 359 359 359 358 357 355 353 352 350 351 352 350 350 351 350 349 349 348 346 344 344 343 325 324 323 324 325 327 332 336 337 339 339 339 338 337 336 335 333 333 335 337 340 337 335 335 333 331 331 333 333 332 334 331 327 324 323 326 327 326 324 327 327 325 326 329 327 324 323 321 321 318 317 317 317 317
347 349 350 354 357 359 361 361 361 361 360 359 358 356 355 353 352 351 352 352 350 349 350 349 349 348 348 347 345 344 343 321 321 321 321 322 325 331 337 340 340 339 339 338 337 338 337 336 335 337 337 336 337 336 335 334 334 334 331 332 334 335 333 333 332 331 329 327 327 327 328 329 328 328 329 330 329 328 324 320 319 317 317 318 318
345 346 347 350 354 358 360 361 361 361 360 359 357 356 354 353 353 353 353 353 351 350 349 349 347 345 345 344 341 339 333 319 320 320 320 321 324 332 335 338 339 339 338 339 339 338 338 338 335 335 338 338 337 333 337 333 330 327 327 329 331 333 334 336 331 333 335 332 330 329 329 330 328 330 328 324 322 321 323 322 320 318 316 314 314
344 345 346 347 351 357 360 361 361 361 360 358 356 356 354 354 354 353 352 351 349 348 347 347 346 343 340 339 338 336 330 319 318 317 318 319 322 331 332 334 337 338 338 338 339 339 336 335 336 337 337 338 335 327 331 338 329 328 328 328 329 330 331 332 327 325 324 321 319 320 321 320 318 316 315 316 319 319 317 314 314 315 312 311 312
346 346 346 347 351 357 360 361 361 360 359 358 357 356 356 355 353 351 350 349 348 347 346 344 343 341 339 338 339 337 333 321 315 315 316 317 322 330 331 332 335 337 338 338 338 335 338 345 342 337 337 335 327 324 326 334 327 327 326 327 328 328 327 328 329 328 326 325 326 324 322 321 320 318 317 316 315 316 316 313 315 314 313 313 311
347 348 348 349 355 360 362 362 361 360 359 358 358 356 355 354 352 351 349 348 347 346 344 343 341 340 339 339 336 338 336 322 312 315 315 315 322 330 331 332 334 336 337 336 337 336 335 342 346 341 337 332 322 321 322 331 328 328 329 328 326 324 321 318 321 321 321 321 320 322 321 322 323 321 324 323 321 322 320 318 318 316 314 314 315
349 353 355 358 362 363 363 361 361 360 358 358 357 356 355 354 352 350 349 347 346 345 343 342 340 339 340 339 339 339 336 327 320 313 314 314 317 331 334 333 333 335 336 335 335 335 335 334 337 329 326 323 319 316 316 322 329 329 327 323 321 321 316 315 321 320 317 318 316 318 319 319 319 320 320 321 323 327 325 323 320 318 316 315 317
354 361 361 362 363 362 362 361 359 359 358 357 356 354 354 353 352 350 348 347 345 344 343 342 341 340 340 339 338 338 338 331 323 312 312 313 315 324 334 334 335 335 334 334 334 333 332 332 332 323 318 317 312 309 310 315 322 321 321 320 320 317 314 314 317 322 316 317 318 318 318 318 318 320 321 320 320 320 320 318 320 319 317 314 309
363 362 361 361 361 360 359 359 358 357 355 354 352 351 350 351 349 347 345 344 343 342 342 341 340 339 339 339 338 337 340 335 325 313 312 310 312 319 333 336 336 335 334 333 333 332 332 332 331 323 314 311 307 305 305 309 314 320 318 311 309 310 314 316 315 315 315 316 314 314 315 316 316 317 318 318 319 320 315 314 314 314 314 313 310
362 360 359 359 358 357 356 355 354 354 353 352 350 348 347 347 345 344 343 344 343 341 341 340 340 339 338 338 338 339 339 333 321 320 311 310 310 314 322 331 327 336 334 333 333 332 333 331 330 320 310 305 303 303 304 306 311 314 305 305 306 308 314 315 315 314 312 314 315 314 314 316 316 313 315 316 316 315 314 313 314 314 315 316 316
360 358 356 356 356 354 353 353 352 351 350 349 348 346 345 345 345 344 344 343 341 339 338 338 338 337 336 336 338 339 338 334 321 318 316 311 310 312 314 314 321 333 334 332 332 332 330 330 325 308 304 299 300 303 305 308 313 305 302 305 307 311 313 313 311 311 314 312 313 312 313 315 313 311 313 316 315 312 312 313 313 314 313 314 314
357 356 356 355 353 352 351 350 350 350 349 348 346 344 343 343 342 343 343 340 338 337 335 335 335 335 334 334 334 337 337 335 329 323 317 313 311 311 311 310 308 314 332 333 333 333 324 312 303 302 301 300 301 304 305 305 306 305 302 305 315 313 312 311 311 312 311 313 314 315 315 314 313 312 312 312 314 312 312 313 314 315 315 314 313
355 354 354 353 351 350 349 348 349 349 348 347 345 344 343 342 341 341 341 340 338 336 335 334 333 334 333 333 333 336 335 331 325 322 320 317 315 312 313 313 317 316 318 317 313 311 307 305 304 303 304 306 309 311 313 312 308 308 307 309 312 310 311 310 311 312 311 311 312 314 313 311 311 311 313 313 310 310 311 312 312 312 311 309 308
352 352 351 351 350 349 347 347 347 347 347 346 346 344 343 341 339 337 338 339 337 336 335 333 331 331 332 331 334 334 330 326 323 320 319 318 318 316 316 317 314 314 316 313 312 310 308 310 310 309 310 310 314 317 317 320 315 311 312 314 312 311 312 312 312 312 313 313 313 313 310 310 313 313 309 308 310 309 311 312 309 308 310 308 306
347 345 344 344 343 344 345 349 346 345 344 344 342 341 340 339 336 334 334 335 334 333 332 330 329 328 329 330 333 332 328 325 323 322 320 320 318 317 320 322 320 321 317 316 315 316 315 312 311 314 313 312 313 315 315 317 318 316 313 313 313 314 316 319 319 316 313 313 311 311 313 311 307 307 308 308 307 308 310 310 310 307 308 307 304
343 344 345 345 344 343 345 345 344 332 319 314 310 315 331 337 328 321 315 319 335 334 332 331 331 330 329 331 333 331 329 326 326 318 323 316 319 320 321 322 322 322 321 315 320 319 315 315 316 316 314 314 313 313 312 313 315 316 317 316 315 314 314 314 315 313 314 313 311 309 308 307 306 307 307 307 307 306 307 306 308 306 305 304 305
341 342 344 344 344 343 343 341 331 325 321 318 315 311 303 301 317 324 317 310 305 309 320 330 330 328 330 329 335 334 331 332 317 310 308 306 307 311 312 311 312 319 314 313 320 317 315 314 315 315 315 313 313 313 313 313 314 314 316 317 317 316 316 314 313 310 310 308 307 307 306 305 305 304 305 304 303 304 305 308 304 305 304 304 303
343 343 343 342 341 342 341 336 329 326 324 323 320 317 314 307 296 299 306 303 301 297 296 296 300 306 327 327 321 316 322 313 307 306 304 303 304 305 305 304 306 306 307 318 320 317 316 315 315 315 316 316 316 315 316 316 316 316 316 316 317 317 314 309 307 308 308 307 306 306 305 305 303 303 303 304 306 304 302 304 305 307 303 303 302
341 341 342 341 339 339 339 334 330 328 327 325 322 320 317 314 311 300 295 298 297 295 294 294 295 297 307 319 321 319 310 306 305 303 303 303 303 302 302 303 303 302 305 311 320 319 318 317 317 317 317 317 318 319 319 318 317 317 317 315 314 312 309 308 308 307 306 305 304 305 304 303 303 304 305 304 304 302 301 303 303 302 303 302 304
341 341 340 340 339 339 336 332 331 330 328 326 325 323 319 317 314 312 308 297 295 295 294 294 294 294 295 300 309 310 308 305 303 302 302 302 302 302 300 302 301 300 305 318 321 320 319 318 317 318 318 318 316 315 314 313 313 313 313 311 311 309 308 307 307 307 307 305 304 303 304 304 304 303 303 303 302 301 302 302 301 301 302 301 302
341 340 339 339 337 336 335 333 332 331 330 328 327 325 323 321 318 315 314 315 314 306 299 294 294 296 295 294 296 299 300 301 301 300 299 298 297 298 300 303 298 300 311 321 319 316 315 316 317 317 317 315 313 314 315 314 313 312 312 312 311 310 309 308 305 304 304 304 303 303 302 300 301 298 298 300 302 302 302 302 301 301 300 299 299
342 347 348 344 337 336 336 335 334 332 331 330 329 328 326 324 321 320 319 318 317 316 313 310 299 293 297 296 293 295 296 297 298 298 297 297 298 299 303 314 315 314 315 319 319 316 317 316 314 315 314 313 313 313 313 312 312 312 311 309 309 309 307 306 305 304 302 301 301 300 300 300 298 299 300 301 300 300 299 300 299 300 299 299 300
341 340 341 342 338 337 337 335 335 333 332 332 331 331 329 326 324 323 321 322 319 316 312 306 303 301 296 292 292 293 294 295 296 297 297 298 299 305 316 314 314 314 314 314 315 315 317 315 314 314 313 313 314 312 312 312 312 313 312 309 309 307 306 305 305 303 304 302 300 300 299 297 299 299 300 300 301 300 299 299 300 300 301 300 301
340 339 339 339 339 338 337 336 335 334 332 331 332 332 331 329 327 325 324 323 320 316 310 306 307 308 307 304 298 294 294 294 295 296 297 298 301 314 317 316 315 315 314 314 314 314 313 313 315 313 314 313 312 311 313 310 308 308 311 310 306 305 304 304 305 307 302 302 300 299 299 298 299 302 301 300 300 299 299 302 300 301 301 303 305
340 340 340 339 338 338 337 336 335 332 332 333 333 332 331 329 328 326 325 323 320 314 310 309 312 310 309 306 307 305 300 298 299 300 301 302 307 312 316 317 318 316 316 315 315 315 314 313 315 313 315 312 311 311 310 308 307 307 307 310 307 306 311 307 306 303 305 302 301 300 301 301 301 301 302 299 298 298 298 300 299 298 300 302 301
338 330 330 331 333 337 336 334 334 333 333 333 333 332 330 328 327 326 324 322 318 315 313 313 313 313 310 308 307 306 307 309 309 309 310 309 310 312 315 319 319 317 316 317 318 317 314 315 314 313 313 312 314 311 310 307 307 308 308 306 305 303 304 303 303 302 303 302 301 300 300 300 301 301 300 299 298 298 298 299 299 299 299 299 299
334 333 330 329 332 332 333 334 333 333 333 332 331 330 330 329 326 325 324 321 319 317 316 315 316 314 310 309 308 308 311 311 312 312 311 311 312 312 314 316 316 316 317 318 317 316 314 313 314 313 311 311 310 309 309 309 309 308 308 306 305 304 303 301 300 301 300 301 301 300 300 301 301 300 298 299 299 299 299 299 300 300 299 299 300
334 334 335 329 329 331 334 332 331 331 332 331 331 330 329 329 328 327 325 323 321 319 318 318 318 314 311 308 305 306 314 314 314 314 314 313 313 313 314 314 314 315 316 316 316 315 313 313 312 312 311 310 310 309 309 309 308 307 307 305 303 303 301 300 300 299 299 299 299 301 301 300 300 297 297 298 302 300 300 300 299 299 300 301 301
333 330 329 329 328 331 330 330 330 333 332 330 329 328 329 329 328 327 326 324 323 321 320 321 318 315 309 303 301 301 313 315 316 315 316 315 315 314 314 314 314 315 316 316 315 315 314 313 312 312 312 312 311 311 310 309 307 306 306 303 304 303 302 300 301 301 302 302 301 301 299 300 301 302 301 303 300 299 299 298 299 299 300 300 300
331 331 330 330 329 329 328 329 329 329 329 328 329 333 331 329 328 328 326 325 324 323 323 321 318 315 311 304 305 302 312 316 320 317 316 316 315 315 315 315 315 316 317 319 316 315 315 314 313 311 312 313 313 312 311 310 308 305 304 304 303 301 300 300 300 301 301 301 301 302 301 300 301 299 299 301 300 300 298 299 300 300 299 299 299
330 331 331 330 329 328 329 329 328 328 328 330 330 328 329 327 326 326 325 325 325 325 324 321 318 315 312 307 306 306 311 316 318 318 317 317 316 316 316 316 316 316 317 317 316 316 316 315 314 314 313 312 311 310 309 308 307 305 305 303 302 301 299 300 299 299 300 299 300 300 300 301 302 300 301 302 299 299 299 300 300 300 300 299 299
326 326 330 331 330 330 328 328 327 327 327 326 325 326 327 325 324 323 324 325 327 325 323 320 317 315 313 311 310 311 312 313 315 317 318 317 317 317 317 317 317 318 317 317 317 317 316 316 314 311 309 308 309 308 306 306 307 306 304 301 298 299 299 300 301 301 300 301 300 300 301 300 299 298 298 299 301 300 300 299 299 303 301 299 298
325 328 328 328 328 329 328 327 328 326 325 324 323 322 323 323 323 322 323 323 325 324 322 320 317 316 314 313 313 313 313 313 315 315 316 318 319 318 318 318 318 318 317 318 318 316 314 313 313 314 313 310 308 306 306 305 303 303 302 300 298 299 301 301 302 302 301 301 300 299 299 299 297 298 303 301 300 301 300 300 300 301 300 299 299
328 326 327 327 327 325 325 325 325 324 324 323 323 322 321 322 321 322 324 322 323 324 322 320 319 317 316 315 315 314 315 315 315 315 317 318 318 318 319 319 318 317 316 316 315 314 314 315 314 312 311 309 308 307 305 304 303 301 302 297 299 300 299 299 300 300 299 300 299 296 296 297 297 298 300 300 301 300 301 300 301 300 299 299 298
325 324 325 325 324 322 322 321 324 326 322 321 320 320 320 320 319 320 319 320 321 322 322 321 320 319 319 318 318 317 317 317 317 318 318 318 318 318 318 318 317 316 315 315 315 315 315 314 313 312 311 310 309 307 305 304 303 300 298 298 297 297 299 298 296 295 295 295 296 296 296 295 295 296 298 300 300 300 300 300 300 298 299 299 299
326 325 323 323 324 323 321 321 323 319 320 320 320 320 319 319 319 319 319 318 318 318 319 320 320 320 319 319 319 318 318 317 317 318 318 318 317 317 318 317 316 315 315 314 314 315 314 313 312 311 311 310 308 307 306 305 300 296 295 293 296 298 294 294 292 290 291 295 295 295 295 295 297 299 299 299 300 300 300 299 297 298 298 299 299
326 325 323 323 323 322 323 321 320 319 319 319 319 318 319 320 319 319 318 318 318 318 317 317 318 319 319 319 318 318 318 317 317 318 317 317 316 317 318 317 316 315 315 314 314 313 312 310 310 310 310 310 309 307 306 305 299 295 293 292 293 291 291 292 293 296 295 294 294 294 295 295 295 295 296 298 299 300 300 299 299 299 299 298 299
327 323 323 322 321 322 321 320 321 323 320 317 317 318 317 317 317 317 317 317 317 317 315 314 314 316 315 315 317 316 316 317 318 317 316 317 316 317 317 317 316 315 314 314 313 311 310 310 310 310 310 310 309 307 306 302 297 295 293 291 290 290 289 289 289 288 291 293 293 294 294 296 296 296 297 297 298 299 302 303 301 299 299 299 300
Wind_Speed
17 15 14 14 14 15 15 14 15 13 13 13 13 12 12 13 13 11 10 11 11 12 12 11 12 12 12 11 12 11 11 10 9 8 8 8 8 7 7 7 6 5 5 6 5 6 6 6 6 5 4 5 5 4 3 3 4 5 5 5 5 4 5 4 4 5 3 3 4 4 3 3 3 3 5 6 5 5 6 6 7 7 7 7 7
16 15 14 14 15 15 16 15 14 12 13 14 14 13 13 13 12 11 12 11 12 13 13 11 11 12 12 11 12 11 11 11 11 9 9 9 9 7 8 8 7 7 6 6 6 5 5 7 6 6 5 6 5 5 5 5 5 5 4 5 6 6 5 5 5 4 5 2 3 3 3 2 4 3 4 5 5 5 6 6 5 5 6 7 7
16 15 14 14 16 15 16 15 13 14 15 14 16 15 13 12 12 13 13 11 11 12 13 12 12 12 12 11 12 12 12 11 10 10 10 10 10 9 8 9 9 8 7 8 7 5 5 5 6 5 4 5 6 6 6 6 6 6 6 5 6 5 5 5 4 4 5 5 4 3 4 4 5 6 5 5 6 5 6 5 6 5 6 7 6
16 15 15 15 16 16 16 15 15 15 16 14 17 16 14 13 13 13 13 11 12 11 12 12 12 12 12 12 12 12 12 11 11 11 12 11 10 10 9 8 8 9 9 7 7 7 7 6 5 6 5 6 6 6 6 6 6 6 6 5 6 7 6 5 5 4 4 5 4 5 4 4 6 6 4 4 6 6 6 6 5 6 6 5 6
17 16 17 17 17 17 17 16 16 17 17 15 17 17 15 14 13 14 13 12 12 11 11 12 12 13 13 13 12 12 13 13 12 12 11 10 11 10 9 9 7 7 8 8 8 7 7 7 7 6 5 7 6 6 6 6 6 6 6 6 6 6 5 5 5 5 5 7 6 4 4 4 5 6 4 5 6 5 4 5 6 6 6 5 5
17 17 17 17 17 18 17 16 18 18 18 17 18 16 15 15 14 13 14 14 12 12 13 12 12 13 13 13 13 12 13 13 13 12 12 11 11 10 9 8 8 7 7 7 7 7 6 6 6 6 7 7 7 6 6 6 5 5 5 5 5 4 5 5 5 6 6 7 6 5 3 5 5 6 5 4 6 6 6 6 5 5 5 5 5
16 17 17 18 17 18 18 18 17 18 18 18 16 14 15 15 15 15 14 14 13 13 13 13 12 13 13 12 13 13 12 12 12 12 12 11 11 11 10 9 8 8 7 8 7 7 7 7 7 7 7 7 6 6 6 5 6 6 6 6 6 6 6 6 6 7 6 6 5 6 6 5 5 8 7 5 6 6 6 7 6 4 4 5 7
16 16 17 18 18 19 18 17 17 18 17 17 15 15 15 15 15 14 13 14 15 15 14 14 12 11 12 12 12 11 11 11 12 12 12 12 11 11 10 10 9 8 7 7 7 8 8 8 8 7 8 7 7 6 6 7 6 6 6 6 7 7 7 6 5 6 6 5 6 6 5 6 5 5 4 3 4 4 5 5 7 7 6 3 4
17 17 17 19 18 18 17 16 16 17 17 16 16 16 16 15 14 13 13 14 12 13 12 12 12 12 11 12 11 11 11 12 11 12 12 11 10 10 10 10 10 9 7 7 6 7 7 7 7 7 7 8 10 9 8 8 6 6 5 6 6 6 5 4 6 5 5 5 5 5 5 6 6 6 6 6 6 8 5 2 3 4 4 5 4
17 17 18 19 18 17 17 15 16 17 17 17 17 16 15 14 13 13 14 14 12 11 10 11 12 12 12 11 11 10 10 9 12 17 15 12 11 9 9 9 9 8 8 7 6 6 7 7 7 12 12 11 10 11 11 10 9 7 7 6 6 5 6 5 6 5 4 5 6 6 6 7 7 6 6 5 4 3 4 2 3 3 3 5 5
17 18 19 18 17 17 16 16 16 17 17 16 16 16 15 14 13 12 11 11 11 10 10 11 11 10 12 11 11 10 10 9 16 16 17 17 12 9 10 9 7 7 7 7 7 8 7 6 6 9 10 11 10 12 10 9 8 8 10 11 9 8 6 5 5 4 4 6 6 5 6 7 7 6 4 5 3 4 3 2 3 3 4 5 7
19 18 18 17 17 18 17 17 17 18 16 16 15 15 14 12 11 9 8 9 9 8 9 9 10 10 9 10 11 11 10 12 16 17 17 17 14 10 8 8 8 7 7 7 8 8 7 6 5 5 6 7 5 5 7 9 11 11 11 11 11 10 6 5 5 5 5 5 6 7 5 6 6 4 4 4 6 3 3 3 3 4 5 4 4
19 18 17 18 18 18 17 17 18 17 16 16 14 13 13 11 10 9 9 8 7 8 8 9 9 9 10 11 11 11 9 13 16 18 17 17 16 12 7 7 8 9 7 8 8 8 7 6 5 5 5 8 5 4 6 7 10 10 8 6 7 8 10 11 10 9 5 4 5 7 7 5 5 6 4 3 2 3 3 4 4 4 4 5 7
18 19 18 18 18 18 17 17 17 16 15 14 14 13 12 12 10 8 7 7 9 9 9 10 9 10 11 10 10 10 9 13 18 18 17 16 16 13 7 8 7 8 9 8 8 8 8 7 6 5 4 6 5 6 7 6 3 3 5 7 6 8 10 12 12 12 9 8 7 8 9 5 7 6 6 3 3 5 5 6 4 4 5 8 8
17 18 18 18 17 17 17 17 17 15 15 14 13 13 12 10 9 9 9 10 10 11 10 10 9 9 10 10 9 9 7 15 17 18 17 17 17 13 9 8 8 7 9 9 8 8 7 7 7 7 7 6 7 8 7 5 4 4 3 3 3 6 5 5 5 4 5 7 8 9 10 8 8 7 6 5 6 6 4 4 5 6 7 4 4
16 16 17 17 18 18 18 17 16 15 15 14 13 12 11 11 10 9 8 7 7 8 7 8 9 9 8 9 8 7 8 17 17 19 19 19 19 12 10 9 7 7 7 6 6 7 7 7 7 6 7 8 11 13 8 5 4 3 3 4 5 4 4 4 6 6 6 7 8 8 5 4 4 3 1 3 3 3 5 4 3 4 5 6 8
15 17 19 19 18 18 17 17 16 16 15 14 13 12 12 11 10 8 9 9 9 9 9 9 9 9 9 10 10 9 9 16 20 20 21 21 17 11 10 8 5 4 4 4 5 5 5 5 5 6 7 8 9 11 9 7 3 3 4 5 5 5 6 4 5 10 11 9 6 5 6 6 5 6 8 9 7 6 1 3 7 6 5 7 7
17 17 18 19 18 17 17 17 16 15 14 14 13 12 11 10 10 9 11 10 9 9 8 7 7 8 9 9 10 10 10 15 22 21 21 21 17 11 10 9 8 6 6 6 5 5 6 12 10 7 7 6 8 10 10 8 5 5 4 5 5 4 4 2 2 2 3 2 4 4 3 4 5 8 10 11 11 5 4 7 7 4 6 7 8
17 17 19 18 16 15 15 16 16 16 15 14 14 14 12 11 9 8 9 8 8 7 7 8 7 6 8 8 11 11 8 13 17 19 20 20 17 9 8 7 8 7 6 6 5 5 5 8 12 9 7 6 10 9 10 7 5 5 6 4 4 5 2 1 2 3 4 5 4 4 4 6 5 5 6 11 12 10 5 8 7 6 7 7 6
19 17 15 14 14 14 14 16 16 16 15 14 12 11 9 9 10 9 8 8 8 8 8 8 8 7 7 7 8 8 8 10 14 19 20 20 19 10 7 8 8 8 6 6 6 5 5 5 5 9 9 9 9 9 9 9 5 4 3 3 3 4 1 1 1 2 2 3 4 4 5 5 5 5 6 6 6 5 7 6 5 5 5 5 4
14 12 13 14 15 16 15 17 17 15 14 13 12 10 9 10 9 9 8 7 7 8 8 8 9 8 8 7 7 6 7 9 13 18 18 17 17 13 7 8 7 7 7 6 6 6 6 6 5 8 11 10 7 9 9 7 4 3 3 3 3 1 1 1 2 5 3 3 3 3 5 5 5 5 5 5 6 2 3 2 1 1 2 3 5
11 12 14 15 15 15 15 14 15 13 13 13 12 10 8 9 8 9 7 8 8 8 8 10 9 9 8 9 8 7 8 12 9 13 16 16 17 15 8 8 8 7 7 6 6 7 7 7 6 9 11 8 9 10 9 8 5 2 3 4 5 4 2 2 3 3 3 3 3 5 5 6 6 6 6 5 3 3 4 4 3 3 4 5 5
13 14 13 13 13 14 14 16 14 12 12 12 13 11 9 10 9 9 9 8 8 8 7 7 8 7 8 7 7 7 7 8 13 12 15 16 17 14 11 10 11 8 8 8 8 8 7 6 6 9 11 12 11 10 9 8 5 2 6 6 6 4 2 2 2 2 3 4 4 5 5 6 6 4 4 2 2 3 3 5 5 5 5 5 4
16 15 14 14 14 14 14 14 13 12 13 13 12 12 11 10 9 8 9 9 8 7 6 6 6 6 7 7 7 6 7 6 9 15 13 16 16 17 9 8 10 6 7 7 6 7 6 6 7 11 12 12 11 10 9 7 3 6 7 5 5 4 1 1 1 2 3 4 5 6 7 7 5 4 3 2 3 4 5 5 6 6 6 7 6
17 17 16 15 15 13 13 13 13 13 12 13 13 12 11 11 10 8 9 8 8 7 6 6 7 6 6 6 6 6 6 6 5 9 14 14 15 15 11 8 6 5 5 4 5 6 7 10 13 13 12 11 11 9 6 5 5 6 7 5 6 2 2 2 3 3 5 6 6 6 6 5 6 4 3 3 4 4 5 6 6 6 6 6 6
17 17 16 15 15 15 15 14 13 12 11 10 11 10 11 10 9 8 9 9 9 9 8 8 7 6 5 5 6 5 6 6 5 5 4 6 6 9 11 6 6 8 7 5 7 10 12 13 13 13 11 10 7 4 3 5 9 10 8 7 4 4 3 4 4 5 7 7 6 7 7 3 3 3 3 3 4 6 4 4 6 6 5 6 6
16 15 16 15 14 15 16 13 12 11 11 10 10 10 10 9 9 8 9 9 9 8 9 8 8 8 7 6 6 6 6 6 6 5 5 6 5 6 7 5 7 9 7 6 8 8 9 9 8 8 7 8 6 7 6 6 5 5 4 5 5 5 5 6 7 7 6 6 5 5 5 4 2 1 4 4 6 6 5 4 6 6 5 6 5
14 15 15 12 11 11 12 17 16 12 11 11 11 10 9 9 9 8 9 11 10 9 9 9 9 8 8 7 7 6 6 6 6 7 7 7 6 7 7 7 6 6 6 5 6 7 7 8 8 6 5 3 2 1 3 3 4 4 5 5 5 6 8 10 8 5 4 3 4 4 2 1 2 4 4 5 6 6 4 4 3 6 6 5 4
17 15 13 12 11 10 12 12 11 10 10 10 8 5 6 10 9 6 4 2 7 10 8 8 7 7 7 8 8 7 7 7 9 9 11 13 12 9 8 9 8 7 8 11 8 6 6 6 5 5 4 4 3 5 5 4 5 5 5 5 6 6 6 6 5 6 6 5 3 1 2 2 4 4 5 6 4 5 5 5 5 6 7 4 6
15 14 13 12 12 11 11 11 11 12 12 11 11 9 12 12 7 10 5 4 7 6 8 6 6 6 6 6 8 10 10 10 11 14 14 16 16 17 13 13 12 9 13 15 10 7 6 6 6 6 5 5 6 5 6 6 6 6 6 6 6 6 7 5 5 5 3 3 2 1 3 3 3 4 5 4 5 6 6 4 5 5 4 6 7
13 12 12 11 12 11 11 11 10 10 10 11 10 11 9 12 19 14 10 7 12 15 15 12 9 3 6 6 3 3 8 13 17 15 15 15 14 13 13 14 13 15 17 11 7 7 6 6 6 5 6 6 6 6 6 6 7 7 6 6 6 8 4 5 6 4 4 4 2 2 2 2 3 4 6 5 5 6 6 6 5 5 6 6 6
12 11 11 10 11 10 9 11 11 10 9 10 11 11 11 10 8 11 11 12 15 16 15 14 13 12 8 8 10 2 8 16 17 16 16 16 15 14 14 15 13 15 17 13 7 6 6 6 6 6 6 6 7 7 7 8 7 8 8 7 6 3 6 6 6 5 3 2 1 2 2 2 3 4 4 3 4 6 6 7 6 6 6 6 6
13 11 11 11 10 11 11 11 11 11 11 11 9 10 10 10 10 7 8 11 16 17 16 15 14 13 11 9 5 10 12 14 17 16 16 15 14 12 12 14 14 14 14 8 7 7 7 7 7 6 7 8 6 3 2 1 3 3 3 3 4 6 6 4 2 1 0 0 1 1 1 2 2 2 4 5 6 6 7 6 6 6 6 5 5
13 12 12 11 10 9 10 9 9 9 9 9 10 10 10 10 9 8 7 6 8 11 14 16 14 13 14 12 9 8 12 14 15 15 15 14 13 13 13 7 8 12 11 8 6 6 4 3 2 1 2 5 6 6 6 5 4 4 4 5 4 5 4 4 5 3 3 3 2 2 2 3 4 4 6 6 7 5 5 4 6 6 6 6 7
10 13 17 11 10 11 10 9 9 9 8 9 9 9 10 10 9 9 8 8 7 6 4 6 12 15 10 8 10 10 10 12 14 15 15 15 15 15 15 10 7 3 3 4 5 4 3 3 3 3 4 4 3 5 6 4 3 3 4 3 5 5 4 5 4 3 2 1 1 2 2 2 3 4 4 7 6 4 5 6 6 5 5 7 7
11 10 10 11 9 9 10 10 10 10 9 8 8 8 9 9 8 7 6 7 8 7 5 5 4 7 12 12 11 10 10 9 11 14 16 16 16 16 9 7 7 6 6 5 4 3 3 3 3 6 7 5 4 4 4 4 3 3 1 2 4 5 5 4 3 2 1 1 2 1 3 4 3 5 6 4 3 4 6 6 5 5 7 7 7
10 10 9 7 8 9 10 11 10 10 9 9 8 8 8 8 7 7 7 7 7 6 6 5 5 5 6 6 8 10 9 10 9 10 11 13 11 7 7 8 8 7 6 6 4 3 3 3 4 6 5 6 5 5 5 6 5 4 4 3 4 5 3 3 2 2 0 1 4 4 3 3 5 6 3 2 4 5 5 5 6 7 7 8 7
9 9 7 8 9 10 10 10 10 13 10 9 8 8 8 8 8 7 7 7 8 8 7 5 5 7 6 3 3 3 6 8 12 10 6 3 1 3 5 6 6 6 6 6 6 6 5 4 5 6 6 6 6 5 6 5 4 3 3 4 4 4 5 3 1 0 0 2 4 4 2 4 6 3 2 3 4 4 6 6 6 7 7 7 6
7 11 14 13 10 9 9 10 10 10 9 8 8 8 8 8 8 7 7 7 7 6 6 6 6 6 6 6 5 5 7 6 6 7 7 6 4 3 2 4 5 6 6 6 6 6 6 5 6 6 6 6 5 6 6 4 3 3 4 5 6 3 3 1 1 2 1 2 5 4 6 6 1 2 2 4 4 5 6 7 7 6 6 7 7
8 7 10 14 9 10 9 10 9 8 8 7 7 7 8 8 8 7 8 8 7 7 7 8 7 6 7 7 7 7 6 8 7 7 7 6 6 5 3 4 3 4 7 7 7 6 6 7 7 7 6 6 6 5 5 4 4 4 3 2 4 4 6 5 2 0 3 3 5 5 3 1 2 1 3 3 5 6 6 7 6 5 6 6 6
7 7 7 9 11 9 9 9 8 7 7 6 6 7 7 7 8 8 8 8 7 7 7 7 7 7 9 10 13 12 9 9 8 7 7 7 6 5 6 5 3 2 3 5 7 7 7 7 7 7 6 6 6 6 5 5 5 3 4 5 5 4 2 1 1 2 2 3 4 2 2 2 1 3 3 4 5 6 6 4 5 6 6 5 6
7 7 8 7 9 8 8 8 8 7 7 7 6 7 7 7 8 8 9 8 8 8 7 6 7 7 10 15 15 12 6 5 5 6 6 5 5 6 5 5 4 3 3 4 6 7 7 7 7 7 7 6 6 6 5 5 4 3 5 4 4 4 4 4 4 3 4 2 0 3 2 1 1 2 2 3 4 5 5 6 6 6 6 6 6
8 8 7 6 7 8 7 7 7 7 6 7 6 6 8 9 9 8 8 8 8 7 7 7 6 6 8 12 14 11 4 6 5 6 6 6 6 6 6 6 6 5 4 5 7 7 7 7 7 6 6 7 7 6 6 4 5 5 5 4 4 4 3 3 2 1 4 6 3 2 3 3 2 3 4 4 4 5 5 6 6 6 6 6 5
6 8 7 7 6 4 5 6 6 6 6 6 7 7 8 8 8 9 9 8 8 7 7 7 7 7 7 8 9 7 4 5 6 6 7 7 7 7 6 6 6 6 4 5 7 6 7 7 6 5 3 5 5 5 6 6 6 6 5 4 2 1 2 2 1 3 5 4 3 3 3 3 3 4 4 4 5 6 6 5 5 6 7 5 6
6 7 7 7 6 6 6 6 7 7 7 7 6 6 6 7 8 8 8 8 8 7 7 7 7 7 7 8 8 7 6 4 3 3 6 7 7 7 7 6 6 6 6 6 7 6 6 6 7 7 6 5 6 6 6 4 4 5 4 4 1 0 0 1 5 3 4 5 4 4 4 4 4 4 4 6 5 5 5 5 6 6 6 5 6
5 4 6 7 8 6 7 6 6 7 7 7 7 7 7 7 7 7 8 9 8 7 7 7 7 8 8 8 7 7 6 5 6 5 3 5 7 7 7 7 7 7 7 7 6 6 7 7 7 7 7 7 6 6 5 5 5 4 4 4 5 4 3 3 4 6 5 5 5 4 3 3 3 3 5 6 6 5 5 6 5 5 4 5 6
4 6 8 8 7 5 6 5 6 7 6 6 7 7 7 7 6 6 5 8 9 8 7 7 7 7 8 8 8 8 8 7 7 6 5 5 5 7 8 7 8 7 6 7 7 7 6 7 7 8 8 7 7 7 6 6 7 5 4 4 7 5 4 4 4 5 5 4 4 5 2 1 3 4 5 5 5 6 5 6 5 4 5 6 6
7 7 4 6 7 7 7 6 6 7 6 6 5 4 6 6 6 6 5 6 9 8 7 7 7 7 8 7 7 7 7 6 6 6 6 6 6 5 6 6 7 7 7 7 7 7 7 7 7 8 8 8 7 7 6 5 5 6 5 3 5 6 7 6 4 4 3 3 2 0 1 2 3 4 4 4 5 6 6 6 3 4 5 6 7
7 6 5 6 5 6 6 5 5 6 6 5 6 6 5 5 6 6 6 6 5 8 8 8 7 7 7 7 7 7 6 6 6 6 7 7 6 4 6 6 7 7 7 7 7 7 7 6 7 7 8 7 7 6 6 5 7 5 5 4 6 9 9 8 5 4 3 2 0 0 1 2 2 3 3 4 5 6 6 3 3 4 6 6 7
5 5 5 3 4 2 4 5 4 4 4 3 4 3 5 6 7 6 6 4 4 3 3 5 8 8 7 7 7 7 6 6 6 7 7 6 6 6 7 7 8 8 7 7 6 6 7 7 7 7 7 7 7 7 7 6 6 6 6 6 9 10 9 9 7 6 4 2 1 0 0 1 2 3 4 4 5 6 4 3 4 4 5 6 7
4 4 3 2 2 1 4 5 4 5 5 5 5 3 3 5 7 7 7 6 6 5 3 3 5 7 5 5 4 4 4 5 5 6 6 6 6 6 8 8 8 8 7 7 7 8 8 8 7 7 7 8 7 7 7 8 7 7 9 11 12 11 10 8 6 5 5 3 1 0 0 1 2 3 4 5 6 5 4 5 5 5 6 6 7
Wind_Direction
189 191 186 187 183 185 188 190 190 183 180 186 190 191 189 189 189 186 179 186 180 182 183 177 175 178 175 174 174 172 172 173 175 167 168 175 176 179 186 190 193 197 183 191 182 182 194 207 216 214 181 166 174 182 186 180 152 155 165 164 183 191 175 188 204 251 295 251 236 245 258 278 283 241 265 276 278 267 257 252 248 243 241 245 251
190 187 187 187 186 185 190 192 187 180 183 189 194 194 193 190 187 184 189 184 181 183 183 181 176 175 176 176 176 175 173 173 176 172 170 174 180 181 188 188 193 195 189 193 198 187 188 203 215 211 193 181 190 189 193 172 170 173 189 185 197 203 196 176 208 210 246 297 288 298 291 228 258 249 246 263 275 281 274 258 248 241 242 241 245
188 184 186 187 188 188 189 191 185 182 186 191 197 197 195 190 186 189 192 187 185 183 184 182 181 179 179 176 176 178 176 173 175 177 179 178 181 186 187 189 194 198 197 201 199 198 196 195 199 191 181 184 188 191 186 183 181 181 197 190 197 195 176 174 157 211 238 253 228 252 247 253 237 260 249 243 253 253 257 256 247 247 244 242 245
186 185 187 188 188 188 191 189 184 185 189 194 199 199 193 192 191 193 191 188 186 186 185 184 181 182 182 181 180 179 179 175 175 179 183 183 184 187 188 187 190 197 202 202 202 201 206 204 203 189 184 183 193 196 197 190 188 189 192 184 163 170 178 174 181 192 217 251 248 226 241 249 265 254 247 246 250 256 243 254 252 247 243 242 244
185 186 187 187 189 191 192 187 187 188 192 196 201 198 194 192 194 195 190 192 188 183 186 185 183 184 186 185 183 182 182 179 177 181 183 185 187 190 192 193 192 192 196 197 197 197 201 202 201 193 187 190 201 200 199 190 189 186 200 202 188 182 175 176 186 186 203 234 258 240 238 256 263 273 257 267 280 274 266 253 253 247 249 248 246
187 186 187 189 191 193 192 189 189 190 194 200 201 197 195 195 194 195 193 192 188 188 186 188 187 188 189 187 186 185 183 184 181 179 182 184 187 190 194 197 199 199 197 194 192 191 194 198 198 194 194 194 201 197 188 189 187 190 202 206 194 173 175 191 190 198 206 227 231 281 261 250 276 269 266 239 259 278 279 263 258 257 255 272 261
187 186 188 192 193 194 192 191 190 192 195 200 200 197 198 199 195 196 195 193 189 190 191 190 191 188 189 184 187 185 183 183 182 180 181 183 186 189 193 197 200 201 205 202 202 199 200 204 203 198 201 201 200 202 199 198 192 198 197 184 184 179 196 199 198 202 207 224 243 240 265 270 250 272 272 245 243 242 259 283 278 252 243 244 268
187 187 189 193 195 195 194 192 191 193 197 199 198 199 200 200 199 197 192 194 196 193 191 192 190 185 186 188 186 183 182 182 183 183 181 182 184 189 190 194 198 203 204 204 203 202 199 199 199 198 198 197 193 200 192 193 189 196 198 182 184 192 203 206 206 211 215 219 233 251 241 260 273 264 284 301 294 287 256 242 260 276 274 257 244
186 187 190 195 196 195 194 193 193 194 197 198 199 201 202 202 199 195 195 199 199 197 192 188 185 186 186 186 183 183 184 186 184 183 182 182 182 186 188 190 196 200 206 207 202 195 195 197 196 193 193 191 191 189 196 189 184 192 199 187 193 201 218 221 223 221 229 228 258 260 263 266 263 272 283 275 259 253 256 246 264 265 278 295 282
186 187 192 196 195 194 194 193 193 195 197 199 200 201 201 201 200 197 197 198 196 192 190 187 187 187 184 184 184 184 188 189 187 183 181 179 181 184 183 190 194 198 202 209 211 207 204 200 200 197 197 191 185 188 194 191 185 181 184 194 199 204 215 225 234 238 237 247 253 258 265 262 264 259 257 254 250 274 301 305 283 283 308 295 291
186 189 193 194 193 193 193 195 194 197 198 199 200 200 201 201 201 199 196 193 192 188 184 183 188 186 185 183 184 187 188 191 180 179 181 178 176 180 185 190 192 195 199 200 208 210 209 200 193 196 187 192 192 191 190 193 198 199 197 201 200 195 206 222 241 230 234 241 247 245 247 261 265 260 252 262 264 257 249 266 277 296 296 303 299
188 191 192 191 191 192 194 194 196 198 197 198 198 200 200 199 197 192 185 182 183 173 175 181 182 181 181 180 184 189 192 182 172 177 178 177 177 177 183 186 195 200 196 196 204 204 196 188 181 183 180 186 185 184 191 206 214 219 220 219 221 222 222 209 230 246 238 245 249 246 249 251 264 266 273 280 272 272 270 276 264 265 266 266 264
188 191 190 190 192 191 192 194 197 196 197 196 196 197 195 192 189 182 182 174 154 164 175 168 176 174 175 180 186 188 191 171 168 173 176 175 175 174 178 184 192 201 197 195 199 198 189 183 175 178 183 174 164 185 201 220 229 235 249 269 270 255 251 252 240 237 248 239 244 257 248 256 268 264 249 234 200 251 263 257 244 230 236 257 264
189 191 190 191 191 191 192 193 194 194 192 193 192 190 187 189 185 175 157 152 166 172 170 170 168 176 177 179 183 184 186 162 167 171 172 173 174 177 188 192 195 196 198 196 195 192 186 181 172 174 174 167 183 203 213 217 208 213 219 225 236 248 249 245 246 246 237 235 243 254 259 239 250 256 253 236 232 246 238 249 250 267 263 256 259
191 190 191 192 190 190 191 191 191 189 188 189 187 186 184 178 167 164 166 170 171 173 168 167 169 170 175 176 176 176 165 159 163 167 168 174 180 183 195 196 198 195 195 198 192 186 184 177 167 166 173 194 200 207 206 194 202 222 246 266 251 242 237 233 228 229 224 222 228 240 250 250 250 258 266 251 240 239 216 223 240 250 258 275 291
191 188 191 192 192 190 188 187 187 185 184 183 181 180 176 172 168 163 160 158 156 151 154 155 159 162 162 160 155 156 147 160 161 167 174 181 184 190 197 197 190 194 195 189 187 183 175 165 152 169 184 196 209 205 182 167 191 222 253 262 271 278 273 246 239 234 228 217 219 230 251 260 253 247 230 216 227 244 254 272 305 283 279 284 276
190 188 193 193 191 188 186 183 182 180 177 176 175 171 168 166 163 156 150 152 153 158 163 164 163 155 154 156 153 149 152 167 166 173 179 184 186 196 195 200 193 172 164 171 174 155 131 138 182 198 197 205 196 184 178 161 186 217 239 257 263 266 273 287 276 267 276 284 271 244 242 244 250 257 246 250 241 243 272 318 273 258 263 274 276
193 189 193 194 189 184 182 178 175 172 170 171 169 168 165 159 158 158 154 155 159 163 158 153 156 156 155 154 158 155 165 176 174 178 181 186 186 192 196 195 197 187 172 173 162 150 168 182 190 194 195 204 187 172 168 169 188 204 216 237 254 263 272 323 342 4 33 29 29 15 344 298 276 260 255 259 265 243 183 246 258 263 266 260 273
193 192 193 190 183 176 172 170 167 166 167 167 165 165 163 157 153 152 151 151 154 151 145 145 149 150 156 160 167 165 162 178 180 178 184 189 190 191 184 186 191 196 173 173 172 175 201 211 200 186 194 187 171 184 191 188 192 197 209 214 234 246 230 357 327 338 351 356 343 343 325 310 294 288 280 271 265 266 228 236 259 257 264 276 287
195 191 180 171 168 165 165 163 162 162 162 162 162 157 145 143 151 155 149 144 145 150 149 145 149 156 156 160 167 168 156 170 185 184 189 191 188 182 178 180 192 188 173 167 174 197 195 198 187 172 186 189 193 191 189 183 187 182 163 186 215 245 167 303 283 294 322 308 288 283 283 288 291 287 286 282 277 256 253 244 247 262 269 271 270
183 165 159 158 159 161 161 159 156 157 154 151 147 144 146 146 143 144 142 138 131 137 145 143 150 158 160 161 168 171 157 165 186 191 193 188 187 183 177 184 181 172 175 173 183 188 197 195 195 192 195 198 176 155 147 153 153 131 141 191 201 153 127 252 285 310 287 279 281 291 298 303 296 283 272 273 274 314 33 44 97 160 198 235 254
151 150 154 156 156 154 152 146 144 141 139 138 137 134 130 130 131 129 125 128 129 128 132 149 155 160 162 161 169 171 159 160 164 188 187 186 186 189 172 182 171 169 172 180 176 191 199 191 191 200 190 158 147 144 142 142 137 129 143 146 152 173 206 238 264 272 277 291 310 309 299 297 299 302 302 311 351 13 351 329 306 262 229 221 230
141 143 144 144 146 145 142 139 139 139 138 135 130 129 125 122 121 120 123 124 130 134 137 136 138 138 141 146 154 149 153 157 162 170 188 184 185 191 179 171 173 169 172 182 188 194 199 186 192 174 161 151 146 143 145 139 127 163 163 170 183 203 240 259 256 307 312 301 293 288 283 276 275 271 286 297 304 322 317 303 299 295 293 283 268
138 139 140 140 140 139 135 131 128 129 129 127 125 124 124 123 124 126 129 133 133 135 133 129 121 122 132 137 140 139 151 155 173 171 174 186 184 189 167 132 161 177 175 181 185 190 178 181 162 148 150 145 142 147 146 146 174 180 178 186 190 211 229 262 319 285 280 285 278 268 266 255 241 266 271 251 287 301 305 301 296 291 285 286 284
140 141 140 140 135 132 127 126 127 125 127 129 128 127 126 128 127 126 126 130 135 137 137 125 129 141 142 151 155 153 152 154 156 175 173 182 185 185 156 122 109 132 169 169 175 179 159 137 126 133 135 137 140 132 130 189 215 184 189 195 208 214 214 236 248 262 264 254 249 253 258 251 238 256 254 259 297 319 313 302 293 291 284 275 273
138 138 137 134 131 127 122 119 118 118 117 118 120 125 128 132 133 135 136 145 146 142 142 139 137 142 157 163 161 160 143 131 124 128 151 161 171 171 170 143 97 80 87 102 112 116 120 119 121 122 127 137 137 135 176 199 208 207 202 203 210 209 216 225 240 233 242 247 251 250 249 267 297 272 257 300 323 290 284 282 289 292 295 297 305
129 129 128 128 125 124 123 125 122 119 118 118 120 125 129 132 135 135 144 145 146 148 147 148 142 148 174 169 158 150 142 137 134 125 131 151 162 162 157 145 110 106 105 112 106 103 114 129 141 141 134 146 152 184 197 192 182 206 213 208 209 217 222 217 222 227 235 242 258 274 273 259 251 310 315 308 290 281 273 277 287 284 294 292 294
98 90 82 81 92 109 121 124 122 123 123 127 130 131 133 137 132 134 144 151 149 149 148 151 151 153 165 156 152 146 150 149 153 159 162 161 156 157 168 165 167 158 135 135 127 128 122 115 113 109 118 130 225 244 224 213 203 198 213 209 221 229 236 239 241 238 255 258 243 227 249 276 311 292 282 285 273 282 288 290 285 292 289 301 310
93 100 112 125 128 135 129 127 120 105 86 70 46 56 127 135 121 94 17 7 142 146 147 141 151 161 156 153 159 159 159 178 199 183 171 167 160 162 171 176 176 169 153 138 120 109 106 117 118 132 153 164 177 208 216 221 237 226 221 214 221 229 237 234 233 240 238 201 185 204 250 283 286 287 283 277 286 294 296 297 284 283 297 288 273
118 134 135 132 135 132 130 122 112 116 114 112 106 78 40 42 88 129 114 67 63 83 120 144 142 156 149 154 173 163 182 200 165 164 166 167 169 169 170 166 166 152 148 147 136 136 147 149 165 166 169 175 191 206 216 218 230 231 227 220 219 225 232 223 204 191 177 167 185 205 254 255 268 269 272 295 309 300 289 288 291 297 292 291 295
135 129 129 136 140 139 134 124 126 121 123 120 113 109 93 44 27 38 98 120 105 93 83 83 79 66 150 147 200 264 174 142 152 166 162 164 163 158 151 155 157 148 144 135 140 152 161 168 174 185 186 187 199 209 215 219 225 219 224 222 216 226 201 151 165 167 172 183 204 213 219 215 262 290 313 312 295 289 306 305 297 297 290 292 300
132 137 137 137 137 137 127 126 126 123 119 120 121 123 115 105 70 36 29 71 73 74 73 69 67 60 66 129 145 66 145 153 158 161 163 159 163 160 155 158 164 151 165 152 148 166 171 174 184 194 191 197 211 216 215 220 212 203 210 217 220 179 147 164 182 165 181 170 203 249 260 276 311 319 304 286 301 312 303 303 303 301 302 308 297
136 135 135 137 139 138 130 135 136 135 136 131 124 117 111 108 106 85 28 42 69 71 62 57 58 60 56 57 113 158 163 164 161 157 156 158 157 156 157 164 164 162 152 160 169 170 181 182 188 200 195 201 202 209 259 225 138 128 123 130 119 148 159 158 135 103 79 236 236 253 291 356 359 338 320 321 316 300 300 295 298 305 311 314 311
137 141 146 144 134 122 127 130 129 127 125 125 128 128 128 127 129 130 122 107 71 64 61 53 50 62 58 54 64 97 134 146 146 142 139 138 135 128 119 113 134 162 167 175 166 176 167 180 223 216 105 99 89 83 76 75 83 95 84 71 90 101 100 106 89 85 70 51 39 350 10 4 358 333 309 306 297 290 291 299 315 323 318 313 311
115 122 125 124 121 124 128 129 128 127 126 127 129 130 133 137 139 144 146 136 125 113 96 52 42 46 56 55 51 77 108 127 132 137 135 134 131 128 113 115 124 131 147 174 168 155 144 146 132 103 109 104 101 97 103 99 76 75 93 100 110 125 116 109 119 120 108 94 331 298 310 340 319 301 294 287 288 312 318 321 315 308 314 317 311
121 126 127 121 114 121 128 132 134 135 138 135 134 130 136 139 139 141 135 129 128 122 98 61 52 49 61 56 54 70 86 106 130 137 141 140 143 134 132 147 150 169 180 179 170 167 148 160 134 125 131 136 124 104 101 88 76 81 109 110 131 139 130 115 127 149 186 213 235 257 354 338 301 295 292 277 299 319 322 315 307 311 314 306 299
125 127 128 122 115 121 127 135 137 135 131 127 127 129 133 134 136 140 136 132 121 114 113 122 114 76 59 59 67 65 76 98 105 113 130 143 151 142 153 160 166 166 173 179 171 168 164 186 146 149 136 129 129 127 100 84 91 88 70 85 105 113 145 161 177 193 197 315 326 323 316 280 291 283 263 350 335 332 325 312 316 313 308 300 303
120 124 124 120 121 124 129 132 129 125 126 128 133 133 131 138 145 147 142 132 130 130 131 146 143 136 138 128 121 111 107 99 92 78 85 114 158 161 160 167 164 166 174 182 179 170 182 181 151 146 147 135 137 131 117 130 133 124 121 115 134 150 158 176 189 175 109 260 272 271 262 285 270 271 22 26 347 333 314 311 308 307 304 304 312
95 102 108 117 120 125 126 127 129 129 130 135 137 132 134 138 142 148 135 127 131 130 143 148 148 150 147 141 132 141 123 115 143 162 170 186 195 199 191 188 174 183 183 180 176 176 175 150 144 128 126 119 119 123 132 156 156 155 164 152 162 160 146 164 216 222 210 256 261 263 265 247 255 48 46 16 340 316 305 301 304 297 302 309 308
112 110 114 113 110 112 122 125 127 128 134 138 136 134 139 145 149 142 133 134 137 146 153 155 156 151 148 152 149 156 151 161 174 171 172 179 191 209 214 222 210 185 180 182 184 165 152 150 144 135 137 142 141 149 165 174 175 182 174 157 154 172 189 185 174 355 305 241 221 219 222 85 87 43 17 347 313 302 298 298 289 298 307 306 303
95 99 99 102 110 112 112 116 120 128 132 139 143 148 154 145 144 140 139 137 143 152 158 159 150 150 165 174 173 172 163 171 172 173 178 177 182 193 209 220 227 225 195 156 158 159 158 151 152 153 159 165 164 166 189 194 208 167 143 152 163 177 188 197 205 218 241 282 267 235 100 107 58 43 342 312 297 301 294 287 308 316 309 304 312
88 90 91 95 97 102 110 113 120 122 120 137 142 149 155 140 141 143 139 141 147 153 150 145 145 157 167 166 175 189 169 155 148 149 157 170 179 198 203 216 218 211 211 168 160 158 158 157 161 163 168 170 173 190 193 200 203 177 169 174 176 184 192 214 216 224 224 242 55 87 101 71 21 6 322 296 313 304 307 321 315 304 305 312 316
93 93 92 86 93 104 105 112 121 119 116 125 132 127 126 130 137 137 134 138 146 149 139 138 138 140 156 167 179 192 167 157 157 159 163 178 185 190 195 206 213 217 218 192 182 163 155 159 169 179 176 180 184 189 182 179 168 166 157 159 169 177 203 223 213 141 91 92 98 74 53 30 17 359 338 330 311 317 318 315 309 308 311 313 315
85 95 98 105 111 106 108 131 125 117 124 131 130 128 125 124 126 128 136 141 141 141 138 139 142 144 147 163 179 188 202 174 168 173 174 183 184 187 197 204 207 212 200 167 162 151 148 158 162 147 117 119 127 128 131 139 131 129 135 136 148 167 179 199 152 104 118 117 106 74 43 32 13 359 343 327 326 320 311 309 313 316 313 311 319
67 66 65 90 92 92 89 93 94 106 107 100 98 103 113 113 123 132 134 134 137 134 131 136 142 144 150 164 177 189 198 204 199 180 184 186 185 189 194 202 199 190 170 161 157 152 137 119 114 118 123 112 100 104 108 106 98 102 120 123 118 49 295 132 124 126 107 93 77 64 41 36 10 354 333 318 315 303 299 310 309 314 317 320 330
105 117 88 69 72 88 102 98 100 100 101 103 103 99 95 96 101 114 122 131 137 134 138 142 146 154 160 163 170 180 198 207 219 220 210 194 191 192 193 196 188 171 169 162 150 139 137 136 130 122 123 125 121 117 118 118 122 118 110 115 115 105 93 91 89 82 79 81 76 73 57 31 356 330 314 311 303 298 307 307 309 305 308 322 320
160 147 123 136 130 111 72 70 94 103 103 104 105 107 107 110 112 107 119 132 140 147 142 147 147 154 159 163 170 183 192 196 208 213 222 223 196 183 196 193 182 167 150 142 142 139 136 125 122 126 134 140 144 145 144 148 149 148 139 109 97 110 105 92 88 93 97 90 85 79 59 12 308 301 306 311 307 305 306 301 295 307 329 321 316
353 28 53 100 101 103 117 116 99 98 106 106 108 105 109 115 117 113 108 116 128 149 150 152 158 163 163 168 175 179 182 190 195 203 208 212 214 182 169 173 155 149 145 145 146 147 146 144 137 132 137 141 141 143 142 126 95 81 76 92 123 128 128 118 105 103 99 100 106 120 246 257 270 283 289 292 297 298 304 299 302 335 323 318 312
344 5 38 74 93 102 99 95 102 103 116 114 116 128 133 129 127 123 119 121 132 147 155 164 163 159 164 173 175 176 176 181 195 203 203 200 196 176 160 157 147 147 148 154 159 153 158 143 132 130 131 134 135 134 127 122 114 116 118 123 125 122 119 120 121 128 143 133 137 260 271 262 269 275 294 300 299 299 294 284 333 328 316 311 307
150 107 105 81 82 87 94 98 91 82 87 99 112 133 141 130 124 124 133 144 148 156 166 161 163 173 178 180 174 174 174 187 194 196 194 195 190 162 160 157 156 160 161 164 166 130 127 133 133 127 128 131 135 137 147 136 128 141 143 145 141 131 128 129 133 141 128 107 110 122 131 304 299 296 290 289 296 292 292 319 324 312 308 306 301
117 120 104 94 92 92 102 120 100 83 93 95 77 72 128 140 141 151 160 169 183 194 182 164 179 183 163 144 134 141 174 197 202 201 200 204 197 171 163 162 160 158 163 153 139 136 141 140 142 142 142 147 150 154 142 136 144 149 156 157 153 148 147 141 141 138 132 126 132 53 293 288 294 298 297 300 297 296 304 305 301 301 301 299 305